Weather History for KBVO - October, 2012

Change the Weather History Date:

Monday, October 8, 2012

  Actual Average Record
Temperature  
Mean Temperature 45 °F -  
Max Temperature 66 °F 74 °F 97 °F (1963)
Min Temperature 26 °F 51 °F 23 °F (2000)
Degree Days  
Heating Degree Days 20    
Moisture  
Dew Point 33 °F    
Average Humidity 64    
Maximum Humidity 100    
Minimum Humidity 31    
Precipitation  
Precipitation 0.00 in - - ()
Sea Level Pressure  
Sea Level Pressure 30.14 in    
Wind  
Wind Speed 4 mph (SSW)    
Max Wind Speed 15 mph    
Max Gust Speed 21 mph    
Visibility 10 miles    
Events      
Averages and records for this station are not official NWS values.
T = Trace of Precipitation, MM = Missing Value Source: NWS Daily Summary

Daily Weather History Graph

Daily Weather History Graph

Search for Another Location

Airport or City:

Trip Planner

Search our weather history database for the weather conditions in past years. The results will help you decide how hot, cold, wet, or windy it might be!

Date:

Astronomy

Oct. 08, 2012 Rise Set
Actual Time 7:25 AM CDT 6:56 PM CDT
Civil Twilight 6:59 AM CDT 7:22 PM CDT
Nautical Twilight 6:29 AM CDT 7:52 PM CDT
Astronomical Twilight 5:59 AM CDT 8:22 PM CDT
Moon 12:16 AM CDT (10/8) 2:37 PM CDT (10/8)
Length of Visible Light 12h 22m
Length of Day
11h 30m
Last Quarter, 46% of the Moon is Illuminated
Oct 8
Last Quarter
Oct 15
New
Oct 21
First Quarter
Oct 29
Full
Nov 6
Last Quarter

Hourly Weather History & Observations

Time (CDT) Temp. Windchill Dew Point Humidity Pressure Visibility Wind Dir Wind Speed Gust Speed Precip Events Conditions
12:53 AM 35.1 °F - 30.9 °F 85% 30.23 in 10.0 mi Calm Calm - N/A   Clear
1:53 AM 34.0 °F - 30.9 °F 89% 30.23 in 10.0 mi Calm Calm - N/A   Clear
2:53 AM 34.0 °F - 32.0 °F 92% 30.22 in 10.0 mi Calm Calm - N/A   Clear
3:53 AM 32.0 °F 28.7 °F 30.9 °F 96% 30.21 in 10.0 mi SE 3.5 mph - N/A   Clear
4:53 AM 28.0 °F - 28.0 °F 100% 30.21 in 10.0 mi Calm Calm - N/A   Clear
5:53 AM 28.0 °F - 27.0 °F 96% 30.21 in 10.0 mi Calm Calm - N/A   Clear
6:53 AM 26.1 °F - 26.1 °F 100% 30.22 in 10.0 mi Calm Calm - N/A   Clear
7:53 AM 28.0 °F - 27.0 °F 96% 30.23 in 10.0 mi Calm Calm - N/A   Clear
8:53 AM 37.9 °F 34.4 °F 35.1 °F 89% 30.24 in 10.0 mi SSE 4.6 mph - N/A   Clear
9:53 AM 50.0 °F - 34.0 °F 54% 30.22 in 10.0 mi SSW 10.4 mph - N/A   Clear
10:53 AM 55.0 °F - 32.0 °F 42% 30.21 in 10.0 mi SW 12.7 mph 20.7 mph N/A   Clear
11:53 AM 59.0 °F - 32.0 °F 36% 30.19 in 10.0 mi SSW 10.4 mph 16.1 mph N/A   Clear
12:53 PM 62.1 °F - 32.0 °F 32% 30.16 in 10.0 mi SSW 9.2 mph - N/A   Clear
1:53 PM 64.0 °F - 33.1 °F 31% 30.12 in 10.0 mi South 11.5 mph 18.4 mph N/A   Clear
2:53 PM 64.9 °F - 34.0 °F 32% 30.08 in 10.0 mi SSE 11.5 mph 17.3 mph N/A   Clear
3:53 PM 64.9 °F - 34.0 °F 32% 30.06 in 10.0 mi South 12.7 mph 18.4 mph N/A   Clear
4:53 PM 64.9 °F - 36.0 °F 34% 30.04 in 10.0 mi SSW 15.0 mph 20.7 mph N/A   Clear
5:53 PM 64.0 °F - 36.0 °F 35% 30.03 in 10.0 mi SSW 12.7 mph - N/A   Clear
6:53 PM 59.0 °F - 36.0 °F 42% 30.03 in 10.0 mi SSW 5.8 mph - N/A   Clear
7:53 PM 53.1 °F - 36.0 °F 52% 30.04 in 10.0 mi South 3.5 mph - N/A   Clear
8:53 PM 53.1 °F - 36.0 °F 52% 30.04 in 10.0 mi SSW 5.8 mph - N/A   Clear
9:53 PM 46.0 °F 43.9 °F 36.0 °F 68% 30.05 in 10.0 mi South 4.6 mph - N/A   Clear
10:53 PM 41.0 °F - 35.1 °F 79% 30.05 in 10.0 mi Calm Calm - N/A   Clear